Flag for China Weather past 2 weeks in Lanchow, Gansu, China

Now
48 °F

Clear.


Feels Like: 46 °F
Forecast: 49 / 77 °F
Wind: 6 mph from North

Location: Lanzhou / Zhongchuan

Current Time: Apr 29, 2015 at 4:40:04 AM

Latest Report: Apr 29, 2015 at 4:00 AM


Visibility: 10 mi

Pressure: 30.01 "Hg

Humidity: 37%

Dew point: 23 °F

Location of LanchowLocation

Historic Weather in Lanchow — Graph

°F

Lanchow temperature yesterday

Maximum temperature yesterday: 79 °F (at 3:00 PM)
Minimum temperature yesterday: 45 °F (at 3:00 AM)
Average temperature yesterday: 63 °F

Past Weeks' High & Low Weather Summary

 TemperatureHumidityPressure
High79 °F (Apr 28, 3:00 PM)100% (Apr 21, 3:00 AM)30.36 "Hg (Apr 21, 3:00 AM)
Low34 °F (Apr 21, 3:00 AM)6% (Apr 28, 5:00 PM)29.74 "Hg (Apr 17, 5:00 AM)
Average53 °F41%30.09 "Hg
* Reported Apr 14 3:00 AM — Apr 29 3:00 AM, Lanchow, Weather by CustomWeather, © 2015

Note: Actual official high and low records may vary slightly from our data, if they occured in-between our weather recording intervals... More about our weather records

Advertising

Lanchow weather history for previous 24 hours

 ConditionsComfort  
Time TempWeatherWind HumidityBarometerVisibility
3:00 AM
Wed, Apr 29
48 °FClear.6 mph37%30.04 "Hg10 mi
2:00 AM50 °FClear.6 mph37%30.04 "Hg10 mi
1:00 AM52 °FClear.6 mph38%30.04 "Hg10 mi
12:00 AM54 °FPassing clouds.3 mph35%30.04 "HgN/A
11:00 PM
Tue, Apr 28
61 °FPassing clouds.3 mph20%30.04 "HgN/A
10:00 PM64 °FClear.1 mph16%30.04 "Hg10 mi
9:00 PM68 °FClear.3 mph13%30.01 "Hg10 mi
8:00 PM72 °FSunny.8 mph12%29.98 "Hg10 mi
7:00 PM77 °FSunny.10 mph11%29.95 "Hg10 mi
6:00 PM79 °FPassing clouds.6 mph7%29.95 "HgN/A
5:00 PM79 °FPassing clouds.10 mph6%29.95 "HgN/A
4:00 PM79 °FPassing clouds.10 mph7%29.98 "HgN/A
3:00 PM79 °FSunny.6 mph8%30.01 "Hg10 mi
2:00 PM77 °FSunny.3 mph11%30.04 "Hg10 mi
1:00 PM75 °FPassing clouds.6 mph9%30.07 "HgN/A
12:00 PM75 °FPassing clouds.6 mph12%30.09 "HgN/A
11:00 AM70 °FPassing clouds.3 mph12%30.09 "HgN/A
10:00 AM64 °FSunny.3 mph15%30.09 "Hg10 mi
9:00 AM61 °FSunny.1 mph20%30.09 "Hg10 mi
8:00 AM54 °FPassing clouds.6 mph28%30.09 "HgN/A
7:00 AM46 °FClear.6 mph32%30.07 "Hg10 mi
6:00 AM46 °FClear.8 mph29%30.04 "Hg10 mi
5:00 AM48 °FClear.10 mph27%30.04 "Hg10 mi
4:00 AM46 °FClear.8 mph34%30.04 "Hg10 mi
Weather by CustomWeather, © 2015

See weather overviewHow to use our weather pages